TimeEST,TemperatureF,Dew PointF,Humidity,Sea Level PressureIn,VisibilityMPH,Wind Direction,Wind SpeedMPH,Gust SpeedMPH,PrecipitationIn,Events,Conditions,WindDirDegrees,DateUTC
12:54 AM,37.9,28.9,70,29.67,10.0,WNW,9.2,-,N/A,,Clear,290,2013-03-01 05:54:00
1:54 AM,37.0,28.0,70,29.68,10.0,WNW,8.1,-,N/A,,Clear,290,2013-03-01 06:54:00
2:54 AM,35.1,28.0,76,29.69,10.0,West,6.9,-,N/A,,Partly Cloudy,260,2013-03-01 07:54:00
3:54 AM,34.0,28.0,79,29.70,10.0,West,6.9,-,N/A,,Partly Cloudy,260,2013-03-01 08:54:00
4:54 AM,33.1,27.0,78,29.71,10.0,WSW,4.6,-,N/A,,Partly Cloudy,240,2013-03-01 09:54:00
5:54 AM,32.0,27.0,82,29.72,10.0,WSW,6.9,-,N/A,,Partly Cloudy,250,2013-03-01 10:54:00
6:54 AM,35.1,28.0,76,29.73,10.0,West,5.8,-,N/A,,Scattered Clouds,270,2013-03-01 11:54:00
7:54 AM,37.9,28.9,70,29.75,10.0,WNW,8.1,-,N/A,,Scattered Clouds,300,2013-03-01 12:54:00
8:54 AM,43.0,28.9,58,29.76,10.0,NW,10.4,19.6,N/A,,Mostly Cloudy,320,2013-03-01 13:54:00
9:54 AM,43.0,26.1,51,29.77,10.0,NW,15.0,26.5,N/A,,Mostly Cloudy,320,2013-03-01 14:54:00
10:54 AM,44.1,26.1,49,29.76,10.0,NNW,16.1,21.9,N/A,,Mostly Cloudy,340,2013-03-01 15:54:00
11:54 AM,44.1,25.0,47,29.76,10.0,NW,16.1,21.9,N/A,,Mostly Cloudy,320,2013-03-01 16:54:00
12:54 PM,46.0,26.1,46,29.75,10.0,North,15.0,23.0,N/A,,Mostly Cloudy,350,2013-03-01 17:54:00
1:54 PM,44.1,24.1,45,29.75,10.0,NW,15.0,21.9,N/A,,Mostly Cloudy,310,2013-03-01 18:54:00
2:54 PM,44.1,25.0,47,29.75,10.0,NW,10.4,20.7,N/A,,Mostly Cloudy,310,2013-03-01 19:54:00
3:54 PM,45.0,26.1,48,29.76,10.0,NW,12.7,-,N/A,,Overcast,320,2013-03-01 20:54:00
4:54 PM,44.1,25.0,47,29.76,10.0,NNW,12.7,21.9,N/A,,Mostly Cloudy,330,2013-03-01 21:54:00
5:54 PM,43.0,26.1,51,29.78,10.0,WNW,13.8,-,N/A,,Mostly Cloudy,300,2013-03-01 22:54:00
6:54 PM,43.0,25.0,49,29.80,10.0,NNW,13.8,18.4,N/A,,Mostly Cloudy,330,2013-03-01 23:54:00
7:54 PM,41.0,24.1,51,29.81,10.0,NNW,17.3,-,N/A,,Mostly Cloudy,340,2013-03-02 00:54:00
8:54 PM,39.9,24.1,53,29.83,10.0,NNW,10.4,-,N/A,,Mostly Cloudy,330,2013-03-02 01:54:00
9:54 PM,39.0,25.0,57,29.84,10.0,NNW,10.4,19.6,N/A,,Overcast,340,2013-03-02 02:54:00
10:54 PM,39.0,25.0,57,29.83,10.0,NNW,10.4,-,N/A,,Overcast,330,2013-03-02 03:54:00
11:54 PM,37.9,25.0,60,29.83,10.0,NW,8.1,-,N/A,,Mostly Cloudy,320,2013-03-02 04:54:00